Theta_e
312 312 312 312 312 312 311 311 312 312 312 311 311 312 312 312 312 311 311 311 312 312 312 312 313 312 313 313 313 313 312 306 304 303 303 304 315 318 321 323 328 328 327 311 308 307 306 301 301 302 302 303 302 303 305 304 302 301 293 289 287 289 291 293 295 296 297 298 298 300 301 310 316 324 328 334 332 331 331 331 334 336 336 335 335 336 336 337
313 312 312 312 312 312 312 312 312 312 312 311 311 311 311 311 311 311 311 311 311 312 312 312 312 312 312 312 313 313 310 305 302 302 302 313 321 322 323 323 325 327 322 306 304 305 306 301 299 301 300 300 305 301 305 298 304 295 291 289 288 290 293 299 298 299 297 298 300 301 301 302 318 321 324 326 327 328 328 330 332 332 335 335 335 335 335 336
312 312 312 312 312 312 312 312 311 311 311 310 310 310 310 310 310 311 311 311 311 311 312 312 312 312 312 312 312 313 307 302 302 299 303 320 319 322 324 325 327 330 310 303 304 306 307 304 302 300 299 299 300 300 302 297 302 296 294 288 290 294 296 298 300 300 300 301 300 300 303 307 307 318 325 326 326 328 325 326 329 330 331 333 335 336 335 335
312 312 312 312 312 312 312 311 311 311 311 311 311 311 310 310 310 310 310 311 311 311 311 312 312 312 312 312 313 310 304 300 295 299 305 322 321 321 322 325 328 327 307 305 306 307 304 301 300 301 300 299 299 302 298 298 300 294 293 290 292 296 295 299 299 301 302 302 300 300 302 303 306 315 325 326 324 325 327 331 330 329 332 334 336 336 335 333
312 312 312 312 312 311 311 311 311 311 311 311 310 310 310 310 310 310 310 310 310 311 311 311 311 311 311 312 311 308 300 286 290 301 305 329 328 324 323 325 331 319 305 304 304 302 302 300 299 299 300 295 299 299 296 298 299 298 293 295 296 297 297 301 301 302 302 301 302 300 300 300 307 320 323 323 320 321 328 332 334 334 334 335 334 334 334 332
312 312 312 311 312 312 311 311 311 311 311 310 310 310 310 310 310 310 311 311 310 311 311 311 311 311 311 312 308 305 298 283 296 305 333 331 332 326 325 327 331 311 304 302 299 299 298 298 297 296 294 295 295 295 294 298 300 292 295 296 296 298 297 300 302 302 301 300 300 300 301 302 307 310 314 320 322 326 335 335 336 336 337 336 334 332 331 331
312 312 312 312 312 312 311 311 311 311 310 310 310 310 309 309 309 310 310 310 310 310 311 311 311 311 311 311 305 303 297 299 304 308 326 332 332 328 327 330 328 303 301 298 298 297 297 296 298 295 297 295 295 295 298 299 299 295 293 295 298 299 299 300 301 301 299 300 301 302 302 301 312 313 321 324 330 334 335 337 336 337 335 334 331 331 331 331
312 312 311 312 312 312 311 311 311 310 310 310 310 310 310 309 310 310 311 311 310 310 310 310 310 310 311 304 301 298 297 294 300 310 331 331 328 328 327 317 307 299 299 297 296 295 296 295 295 298 295 294 294 297 300 298 298 294 295 297 298 299 299 300 300 300 302 301 301 301 300 301 317 318 326 326 331 333 335 336 335 334 334 333 331 331 331 331
311 311 311 311 312 312 311 311 311 310 310 310 310 310 310 309 310 310 310 310 309 310 310 310 309 310 311 304 298 292 293 304 307 314 329 320 319 315 310 306 303 300 298 297 297 296 296 294 296 298 293 295 299 297 298 296 292 295 296 298 299 299 300 298 300 300 302 303 301 300 298 310 319 324 324 328 331 334 334 334 334 333 332 331 330 331 331 331
312 312 311 312 311 312 311 311 311 310 310 310 310 310 310 310 310 310 309 310 310 309 309 309 310 310 304 300 298 288 297 305 307 316 321 317 312 307 306 306 302 301 300 299 298 297 296 295 298 299 300 298 299 296 299 296 292 295 297 298 298 300 301 300 300 301 300 302 299 300 297 305 315 319 310 328 331 333 332 332 333 332 331 331 330 330 331 331
311 311 312 311 312 311 311 311 310 310 310 310 310 310 310 310 310 309 309 309 309 309 309 309 310 307 300 300 294 288 303 307 309 311 317 316 309 305 305 305 302 301 302 299 298 299 299 298 299 300 300 296 299 296 297 296 299 298 298 298 297 298 299 299 299 299 299 301 299 300 298 298 301 316 315 325 331 332 330 331 331 331 330 331 331 331 331 331
311 312 312 311 311 311 311 311 310 310 310 310 309 309 310 310 309 310 309 309 309 309 308 308 309 305 302 298 294 295 310 308 308 307 308 313 307 306 306 307 304 303 301 299 299 300 300 300 301 299 292 299 293 298 297 300 299 298 297 294 296 297 296 297 298 299 301 299 300 300 298 293 297 311 318 325 330 331 330 329 329 330 330 331 331 330 330 330
312 312 312 312 311 311 311 311 311 310 310 309 309 309 310 309 309 309 309 309 309 309 309 308 308 305 300 291 295 305 308 308 308 308 306 307 310 311 308 308 305 304 303 300 298 300 301 301 301 297 299 296 295 295 297 299 297 298 297 293 294 293 292 295 297 299 299 300 299 300 288 285 293 313 318 322 329 330 328 327 328 329 329 330 330 330 330 332
311 311 311 311 311 311 311 310 311 310 309 309 309 309 309 309 309 310 310 309 309 309 309 309 307 303 297 293 302 308 308 308 308 304 302 306 304 307 312 308 307 304 303 300 300 300 301 301 301 299 301 296 293 299 298 296 298 291 294 295 287 289 287 293 298 296 297 300 298 299 288 285 292 312 318 323 329 328 325 327 327 328 328 329 329 329 330 331
308 310 311 311 311 311 310 310 310 310 309 309 309 309 310 309 309 309 310 309 309 309 308 308 304 300 293 295 305 308 319 316 307 303 304 300 300 301 307 309 305 304 302 301 300 301 301 302 301 297 293 299 299 296 291 291 291 293 290 286 289 287 287 292 296 296 296 298 298 297 289 288 295 312 320 324 327 328 325 326 327 327 327 328 328 329 330 330
308 308 310 310 310 311 310 310 310 310 309 309 308 309 309 309 309 309 309 309 310 309 308 301 299 298 293 286 296 312 304 302 302 304 304 303 301 300 302 308 306 304 302 301 303 303 302 301 296 294 296 296 293 290 288 287 286 289 288 285 287 288 287 291 295 296 298 298 297 297 287 291 292 313 321 326 327 327 325 326 326 326 327 327 328 329 329 330
308 308 308 310 311 310 310 309 310 309 309 308 309 309 309 309 309 309 309 309 308 308 303 296 300 300 285 295 306 299 299 303 306 304 302 303 303 302 302 302 304 304 303 304 303 303 302 299 299 298 296 291 289 291 286 283 282 283 287 284 287 289 287 287 290 295 296 297 294 295 291 292 305 314 321 325 326 325 324 325 325 326 327 328 328 328 329 329
308 308 308 309 309 310 310 310 309 309 308 309 309 308 306 309 309 308 306 305 305 305 302 303 299 295 291 298 291 295 301 301 304 304 303 302 303 301 300 298 304 304 304 302 304 299 300 295 296 288 292 291 291 288 284 281 284 283 285 286 288 290 289 290 289 293 296 296 294 293 300 304 312 316 320 323 326 325 323 324 325 325 326 327 326 326 326 326
307 307 307 308 308 309 309 309 309 309 308 309 309 308 308 309 307 304 301 300 295 289 285 289 290 282 285 293 298 299 301 303 305 303 300 301 303 302 301 300 299 300 296 296 295 299 297 295 296 288 287 286 289 289 287 288 289 288 288 287 287 287 287 287 292 295 296 293 291 293 301 305 310 313 317 321 324 323 323 325 325 325 325 324 323 322 322 322
306 306 307 308 307 308 309 309 309 308 308 305 300 301 297 292 292 291 297 298 293 292 290 293 295 295 295 296 300 303 306 306 299 300 302 302 302 299 298 297 296 299 295 291 293 296 296 289 286 287 287 288 290 291 291 292 292 292 291 290 289 289 289 291 293 295 296 293 296 305 307 308 310 314 317 321 322 322 322 323 322 322 322 321 320 320 320 320
305 306 307 307 307 309 308 308 308 308 308 303 301 295 287 289 288 287 294 294 296 296 294 295 296 294 294 298 301 300 296 298 300 299 301 304 301 297 293 293 291 290 291 294 293 297 296 287 287 288 289 291 292 292 292 291 291 290 289 289 287 289 288 292 293 295 297 296 302 310 310 310 312 315 318 320 320 319 320 320 320 320 320 319 319 318 318 320
305 306 306 307 307 309 308 308 307 308 309 301 299 294 295 296 298 299 295 287 295 297 296 295 297 295 299 299 301 301 299 295 296 299 301 302 298 293 291 292 288 287 292 293 293 291 289 287 289 291 292 292 292 292 293 292 291 290 289 288 287 287 290 292 294 295 300 308 303 310 308 310 313 315 318 317 317 318 320 319 319 318 317 317 317 317 318 318
305 305 306 307 307 307 308 308 307 308 302 298 297 297 295 300 302 302 299 292 289 296 296 295 292 292 293 296 297 299 292 291 290 296 298 300 295 294 291 289 288 290 292 293 289 287 286 288 292 294 293 292 291 291 290 291 291 288 288 287 287 290 289 284 290 294 304 307 306 309 307 307 311 313 313 314 314 314 315 315 315 317 316 316 316 317 316 316
304 305 306 307 307 307 307 307 307 304 300 300 298 297 301 302 302 302 295 287 287 293 296 296 295 294 292 291 296 294 291 292 294 294 301 299 294 295 291 290 289 291 290 291 291 288 288 291 295 295 292 292 291 291 290 287 286 289 290 289 288 289 289 289 288 301 309 310 311 308 305 304 308 307 309 313 315 314 314 314 314 314 315 315 316 317 317 316
304 305 306 306 305 307 307 306 299 298 300 299 298 302 303 303 303 302 293 287 288 289 299 298 298 296 297 301 299 292 294 294 296 299 300 299 295 293 291 294 293 289 291 292 291 289 290 294 295 293 292 291 290 289 290 289 284 286 290 291 291 291 290 291 293 303 300 299 307 305 290 294 304 307 308 310 311 311 313 312 312 313 314 314 314 315 316 316
304 305 305 306 307 306 307 298 297 300 298 296 299 302 303 303 303 302 292 282 277 287 294 287 300 293 303 295 296 294 294 288 296 299 301 300 301 295 293 291 294 289 291 292 291 289 290 294 295 293 292 291 290 289 291 290 286 285 286 292 293 292 292 291 291 299 294 293 301 302 293 289 303 304 306 308 309 309 312 311 311 312 312 313 313 314 314 315
305 305 305 305 306 306 298 293 300 299 294 295 301 303 303 303 305 300 285 276 274 288 286 294 294 294 301 297 296 296 281 286 298 299 299 302 296 298 291 288 295 296 296 296 290 288 294 293 292 293 292 290 289 288 291 290 286 285 292 293 293 292 291 292 292 296 296 300 304 299 298 294 292 301 307 308 306 307 307 308 310 311 312 312 313 314 314 314
305 305 304 305 305 305 299 299 298 295 296 300 303 303 303 304 303 299 286 272 268 292 287 291 295 301 299 297 297 291 291 295 291 295 299 300 298 294 292 289 293 292 295 293 284 292 293 290 291 290 291 290 288 290 292 291 289 288 293 294 292 292 292 293 291 288 291 297 292 293 300 291 292 300 306 306 302 303 304 306 308 310 311 312 312 313 314 314
305 305 305 305 305 306 305 299 298 295 298 302 302 303 304 304 299 289 281 272 288 286 302 290 302 297 294 296 293 294 292 296 289 295 298 299 298 294 288 289 294 294 295 294 286 291 294 294 293 293 291 288 291 293 293 292 289 293 293 294 294 294 293 293 289 290 292 293 288 292 296 286 286 299 300 304 302 301 302 304 306 309 310 311 311 312 312 313
304 305 305 305 304 302 300 301 298 302 302 302 303 304 304 299 292 281 274 266 290 281 291 293 292 287 291 289 289 292 289 292 295 296 295 293 294 297 295 296 293 294 292 294 292 293 294 300 299 294 291 293 293 293 294 293 294 293 294 293 291 288 289 289 288 289 291 287 290 295 295 292 284 296 299 297 299 302 303 303 304 307 309 310 311 311 311 312
304 304 303 305 297 300 300 295 299 305 305 305 304 302 298 290 281 276 270 276 291 288 292 290 288 291 288 287 285 290 290 291 292 294 290 293 291 292 292 290 294 290 290 290 290 293 294 294 294 295 297 296 295 293 294 295 295 294 291 289 288 285 287 288 283 290 285 283 284 294 294 294 285 290 300 302 303 305 304 303 304 305 307 308 310 310 311 311
303 304 305 301 303 304 296 295 303 306 306 305 302 297 289 275 280 273 274 294 279 284 285 285 288 288 288 290 288 288 287 289 291 291 288 288 286 286 287 282 286 279 280 284 285 291 291 292 294 296 301 296 293 290 291 293 292 292 290 288 283 277 281 277 281 279 279 281 285 293 294 289 287 289 296 302 302 304 304 305 305 305 306 306 307 308 309 310
303 304 305 304 304 299 300 302 306 306 305 303 299 294 282 273 270 278 279 285 280 288 286 291 287 288 288 288 286 288 290 285 290 290 291 290 287 287 289 287 288 284 277 285 284 285 287 291 292 293 295 298 295 288 284 287 287 288 288 283 281 277 277 272 274 275 277 283 288 293 292 286 288 295 300 301 303 305 305 306 307 307 306 307 307 307 307 308
304 304 299 302 302 302 303 305 305 304 302 300 295 287 278 271 271 287 282 284 285 293 293 288 288 288 288 285 286 289 283 289 288 287 290 287 287 284 287 289 289 288 288 286 284 285 280 283 289 292 287 295 294 293 290 285 285 289 289 289 283 280 279 273 276 274 277 278 286 295 290 282 288 291 302 302 304 306 307 307 307 306 306 307 307 307 306 306
304 302 299 299 300 302 303 304 306 305 301 294 287 279 273 272 279 279 282 287 291 293 291 295 286 285 284 286 288 289 288 284 289 288 287 286 284 285 285 286 289 290 289 282 287 284 286 284 287 294 293 295 293 294 294 291 289 288 290 289 284 285 282 280 279 277 279 279 282 288 287 295 295 303 304 304 305 305 306 304 304 304 305 305 304 304 304 305
301 297 299 295 299 301 304 305 306 304 298 290 281 277 274 280 279 286 285 293 292 288 291 292 287 283 282 283 287 287 291 285 286 286 285 287 287 285 288 288 288 290 287 283 284 282 285 284 291 294 295 294 295 295 294 295 282 288 288 285 287 291 289 281 280 284 278 282 282 290 294 296 301 303 303 303 303 302 302 301 302 302 303 302 302 302 303 304
294 298 293 297 299 302 304 307 306 302 295 289 280 276 282 284 288 287 292 290 290 291 291 283 281 281 279 279 282 285 287 288 286 285 281 288 285 289 288 289 292 291 292 290 287 288 282 281 290 290 291 294 297 297 295 296 291 288 286 285 291 293 292 285 278 280 277 277 282 292 289 291 293 286 302 301 300 300 299 300 301 301 302 300 300 301 303 304
295 295 297 297 300 303 304 306 304 298 293 288 281 283 289 284 291 291 293 291 292 293 288 286 285 286 280 280 280 284 286 284 282 284 282 287 283 292 290 289 292 292 293 294 289 289 289 282 288 291 292 294 297 295 294 296 295 290 289 292 289 280 283 283 281 276 274 278 284 289 293 292 291 291 298 297 297 298 299 299 299 299 300 300 301 302 303 305
294 295 289 296 302 303 304 303 299 294 286 282 280 281 287 288 292 291 292 292 294 292 287 290 286 289 285 281 283 285 285 281 283 283 282 285 282 290 291 292 290 293 293 293 289 289 292 281 284 291 291 293 294 292 284 289 294 294 294 291 292 286 280 281 281 280 281 277 284 286 292 285 295 296 299 298 298 298 298 299 299 299 300 300 301 302 303 304
291 288 287 300 301 303 305 303 296 291 284 279 282 283 289 286 290 292 293 293 291 290 289 289 291 285 289 288 285 282 285 285 283 283 284 286 286 292 291 293 291 292 294 294 291 295 287 287 280 285 292 292 286 289 287 287 287 289 289 286 290 289 289 286 286 284 280 278 282 285 284 288 293 301 300 300 298 298 298 298 299 300 300 301 301 303 304 305
296 288 287 300 302 304 303 297 289 284 282 286 288 287 288 287 290 291 293 294 292 297 292 291 288 286 289 287 287 288 284 284 284 282 285 286 287 280 292 293 293 291 294 292 290 292 287 286 282 284 287 286 285 290 292 292 291 288 288 285 286 284 284 281 279 285 285 284 284 284 283 287 294 302 302 300 299 299 299 299 299 300 300 301 303 304 305 305
291 284 289 301 303 302 295 286 285 289 286 284 284 287 286 293 290 291 292 294 297 294 299 294 292 290 289 290 290 291 286 284 284 284 287 284 289 288 290 295 294 295 291 287 289 293 289 287 285 283 282 286 290 294 295 295 294 291 292 288 288 286 284 280 279 279 283 285 291 287 285 288 300 300 301 300 300 299 299 299 299 300 301 303 304 304 304 304
289 283 298 303 303 301 290 282 287 286 285 288 292 291 292 291 290 292 290 292 292 295 294 293 293 291 293 292 293 290 291 285 285 283 286 288 289 292 293 294 295 294 294 288 292 292 306 287 284 286 286 288 292 294 294 294 293 290 291 290 288 286 286 284 279 282 282 285 284 282 283 288 299 304 301 301 300 300 300 300 300 300 302 303 303 303 302 301
289 288 293 304 305 300 289 279 281 283 286 289 290 289 293 291 290 290 290 292 296 293 293 293 294 295 292 295 292 289 292 281 286 287 284 288 287 295 294 293 295 293 292 289 289 295 287 286 286 280 282 284 287 289 290 292 293 287 285 289 289 288 290 288 288 288 285 287 288 284 282 285 297 302 301 300 299 299 299 301 302 300 301 302 301 301 301 301
291 293 294 297 301 297 286 288 286 284 287 288 289 288 290 291 293 292 292 291 296 293 294 293 294 294 292 295 293 293 293 290 285 288 288 290 290 295 295 294 295 293 296 297 306 297 289 285 285 279 277 276 277 277 277 280 285 287 289 290 292 292 290 287 283 284 282 286 289 285 284 290 297 300 299 299 299 298 300 301 302 302 301 300 300 300 300 301
289 282 288 290 294 294 292 294 291 289 287 288 285 288 291 289 292 295 296 294 296 297 294 294 294 294 293 293 291 292 292 293 289 286 286 286 290 293 295 295 295 295 301 308 305 297 288 290 287 283 282 279 278 281 286 287 286 285 289 290 291 292 291 288 285 283 282 285 284 289 291 290 293 295 296 297 298 298 298 300 300 300 300 300 300 300 300 300
291 282 283 283 290 289 288 290 289 290 286 292 283 290 288 289 291 293 298 293 298 298 296 294 293 292 291 293 289 290 292 292 294 292 288 287 290 293 296 295 295 298 308 306 304 294 289 286 289 287 286 286 288 291 294 290 287 288 288 288 290 290 290 288 284 283 286 288 282 290 293 291 291 295 296 297 298 298 299 299 300 299 299 299 298 299 301 299
285 289 293 291 284 280 282 284 289 288 290 291 286 291 288 288 290 288 294 297 298 302 293 293 295 296 296 294 293 286 290 290 289 286 295 290 291 293 292 295 294 301 308 300 302 294 288 284 290 290 291 293 294 294 295 294 293 292 293 292 288 288 289 287 285 288 291 285 284 292 294 292 293 295 297 297 298 298 299 299 300 300 300 299 298 298 297 297
294 293 293 296 286 287 287 289 293 289 288 289 286 289 287 288 287 290 292 293 296 296 297 284 291 296 296 298 294 289 289 284 284 291 293 293 294 290 289 292 294 298 300 297 295 292 290 283 290 290 292 294 294 294 295 294 292 293 292 293 293 291 289 290 291 291 289 286 291 293 294 293 295 296 297 298 300 300 300 301 300 299 298 298 297 297 297 297
291 289 287 293 292 291 291 292 292 292 288 293 286 288 290 289 287 291 294 294 287 293 299 293 293 295 296 296 295 290 293 291 292 288 295 295 291 292 290 293 291 296 297 294 295 293 291 283 292 289 286 291 294 294 294 294 293 290 292 292 292 292 292 292 292 293 295 293 294 294 293 292 296 299 298 300 300 301 300 299 298 298 298 298 297 296 296 296
299 299 297 292 288 288 291 293 292 290 286 286 286 288 291 291 290 293 292 296 293 292 296 292 294 294 296 296 295 295 298 297 297 297 299 298 290 296 290 294 298 292 296 294 295 294 292 286 290 286 283 284 291 291 291 292 291 289 288 289 289 289 289 290 289 292 293 291 292 292 289 289 295 299 299 299 299 299 298 297 297 297 297 297 296 296 296 295
303 305 302 297 287 292 287 291 292 289 282 287 290 290 290 290 292 293 285 290 296 297 296 295 294 293 291 292 293 295 299 299 300 300 299 299 301 300 301 300 300 295 294 295 293 289 289 288 283 284 284 282 288 291 289 287 287 285 284 287 289 288 289 290 290 293 296 296 291 288 290 295 297 298 297 297 298 298 298 297 297 297 297 296 296 296 296 296
Wind_Speed
11 11 11 11 11 11 11 10 11 10 10 10 10 11 11 11 11 11 12 12 13 14 14 14 15 15 15 16 17 18 16 8 11 5 4 14 7 15 8 8 5 7 9 2 3 0 1 1 1 1 1 1 2 0 4 3 2 1 2 4 5 4 4 4 5 4 3 6 7 5 1 12 10 9 7 16 16 16 16 16 14 17 17 21 17 17 15 11
11 11 11 11 12 11 11 10 10 10 10 10 10 11 12 12 12 12 13 12 13 14 14 14 15 15 15 16 16 17 13 8 10 10 20 3 13 13 14 14 15 6 10 3 4 3 2 1 4 1 1 1 1 2 0 2 2 3 2 3 7 4 4 2 3 6 4 8 8 6 4 5 11 12 3 14 12 18 18 14 19 19 21 21 19 17 13 13
11 12 11 11 12 11 11 11 11 10 11 10 11 11 12 12 13 13 14 13 13 14 14 14 15 15 15 15 16 15 10 7 5 11 17 17 23 14 15 15 13 10 10 4 3 4 5 2 1 1 1 1 2 4 0 4 0 4 4 4 6 3 4 5 7 10 6 9 8 7 3 4 8 6 5 16 15 22 20 15 15 20 20 21 20 16 11 12
12 11 11 12 12 12 11 11 11 11 11 11 11 11 12 13 13 14 13 14 12 13 13 14 14 15 16 16 16 10 5 4 3 7 4 15 23 22 19 14 11 13 6 1 3 3 1 3 2 2 1 3 4 2 2 5 1 2 3 5 3 3 2 7 4 8 11 6 4 4 4 5 1 5 11 16 13 11 13 21 24 20 20 20 19 17 13 12
13 13 12 12 12 12 12 11 11 11 11 11 12 13 13 13 14 13 13 13 12 13 13 13 14 15 16 17 17 5 4 3 4 2 3 3 11 19 21 14 12 8 7 2 1 2 1 1 1 1 1 3 2 1 4 3 3 2 3 4 5 4 5 12 8 14 12 4 0 4 6 4 1 12 16 17 17 10 12 12 21 21 19 19 17 15 14 13
15 14 13 13 12 12 12 11 11 11 11 12 12 12 13 13 13 12 13 12 12 12 13 13 14 15 16 17 11 1 0 2 2 3 5 6 10 18 17 15 11 7 4 2 2 1 1 1 3 0 1 2 4 4 4 5 2 4 5 3 5 5 6 4 6 12 10 3 3 4 4 3 2 4 1 8 16 10 12 17 19 19 17 17 16 16 15 13
16 15 15 14 14 12 12 12 12 11 11 12 12 13 13 13 13 11 11 11 11 11 12 13 13 15 15 14 5 1 2 9 4 7 7 6 10 14 14 11 9 6 5 4 1 1 2 2 1 3 0 3 5 4 8 2 2 4 8 3 6 8 10 7 9 9 5 5 5 3 5 7 3 9 6 14 15 20 16 18 18 17 16 15 16 16 15 13
16 16 15 14 14 13 12 12 12 12 12 12 13 13 13 13 12 12 12 12 11 11 12 12 13 14 14 7 2 1 0 8 14 4 5 4 9 14 14 6 7 5 6 8 6 5 2 2 5 1 3 4 2 4 3 5 4 4 7 7 5 4 5 6 9 6 7 4 1 6 7 6 6 11 17 16 19 20 19 18 17 17 16 14 18 17 14 13
16 17 16 15 14 15 13 12 12 12 12 12 13 13 12 13 12 12 11 11 11 10 11 12 13 12 10 2 1 1 8 11 1 2 5 3 8 10 13 5 4 8 4 3 6 4 5 5 4 4 3 4 6 8 6 2 6 5 9 6 5 5 5 4 6 4 4 4 2 4 6 7 12 17 18 18 18 19 20 18 19 17 16 14 15 15 14 14
14 15 15 17 15 14 14 12 12 12 12 13 13 13 12 12 12 12 11 11 11 10 11 12 12 11 7 3 2 1 9 10 3 2 4 4 7 9 9 8 9 6 5 6 3 4 7 5 8 3 4 7 4 6 1 3 6 2 3 6 8 8 2 2 6 5 3 1 3 1 3 5 4 13 4 9 18 19 19 18 15 16 15 13 12 13 13 15
14 15 15 15 17 15 14 13 12 12 12 12 13 13 13 12 12 12 11 11 11 10 10 10 10 8 5 4 2 8 5 8 6 5 3 1 9 8 9 6 9 8 9 4 8 11 8 5 4 2 1 4 3 4 1 4 1 4 6 7 7 10 1 2 4 5 1 1 2 2 3 7 1 8 13 13 16 20 20 18 17 17 16 14 15 13 11 11
14 15 16 15 15 17 15 14 13 12 12 12 13 13 13 12 12 11 12 11 10 10 9 9 9 3 4 4 6 10 3 5 5 3 2 2 4 11 9 8 10 10 10 10 10 8 8 8 0 0 5 2 4 2 8 6 4 6 6 5 7 6 4 3 5 4 2 2 2 0 4 3 2 10 17 16 14 19 24 20 18 17 15 15 14 12 10 10
15 15 14 16 14 16 16 15 13 12 11 12 13 13 13 12 12 12 12 10 9 10 9 9 6 2 3 3 12 14 9 10 9 10 6 2 6 6 5 10 12 10 13 10 8 8 8 6 1 2 5 3 5 2 4 4 4 4 1 4 3 2 2 5 4 1 5 2 3 3 3 3 0 12 10 11 17 17 19 18 17 15 14 13 12 11 11 10
17 16 14 14 15 14 17 16 14 12 11 12 12 12 13 12 12 11 11 11 11 11 10 8 1 1 1 8 8 3 9 8 10 11 10 1 3 5 6 7 10 10 9 9 7 4 6 4 3 6 2 4 5 4 10 5 3 4 4 2 3 2 2 2 4 4 5 2 4 4 3 2 4 15 12 10 10 20 17 15 16 15 14 13 11 11 11 10
17 17 15 14 16 14 16 17 15 13 12 12 12 12 10 11 11 12 12 11 11 9 10 8 1 0 0 9 9 11 17 7 5 12 9 3 3 6 6 8 8 8 10 10 4 4 4 1 1 2 4 4 6 6 7 3 2 1 1 2 2 5 3 4 2 6 8 1 6 6 2 5 9 14 12 12 8 15 17 14 15 15 14 14 13 12 11 10
16 17 15 13 14 15 14 16 15 12 11 11 12 13 12 13 12 12 12 11 12 11 5 2 2 3 2 9 6 8 5 1 7 10 9 6 6 6 5 9 8 8 5 4 6 2 3 3 4 4 4 4 4 1 3 5 5 2 5 2 2 3 4 2 2 6 9 3 3 7 3 2 5 18 19 13 16 15 17 16 16 17 16 14 13 11 11 11
17 16 16 16 15 14 15 17 15 12 9 8 12 13 12 12 12 11 11 11 6 4 4 2 2 4 1 3 5 4 2 5 5 3 3 8 9 6 1 3 5 8 8 5 6 4 2 4 1 2 4 5 3 4 4 5 4 4 0 5 4 6 2 2 5 4 3 5 1 2 2 3 13 17 16 16 17 16 18 19 18 15 13 13 12 12 12 10
16 17 16 16 14 15 13 15 15 11 8 8 10 8 10 11 12 10 8 5 3 4 4 5 2 1 12 9 5 6 3 6 3 4 4 3 9 5 2 3 2 8 7 5 2 5 3 3 3 5 1 4 5 4 7 8 8 6 2 3 1 1 4 7 3 3 4 3 4 2 14 12 12 8 7 10 14 17 17 18 17 18 15 12 11 10 11 10
14 16 17 16 16 15 13 14 14 10 5 8 8 9 13 14 5 2 3 2 2 2 0 4 5 6 2 2 9 4 4 2 5 3 3 3 2 3 1 3 2 5 4 5 3 7 1 1 2 4 8 6 9 8 8 8 5 5 4 5 3 4 3 4 6 3 7 3 4 8 8 12 8 9 7 7 10 18 18 17 17 15 12 11 11 10 10 9
13 14 16 16 16 14 13 13 12 8 5 4 3 3 2 2 1 1 1 3 7 7 1 6 12 5 12 6 4 0 4 7 3 4 4 4 2 1 3 1 1 3 5 7 3 7 4 7 8 10 8 7 6 8 8 7 4 3 2 2 7 7 4 2 3 5 5 5 8 12 9 12 9 10 9 9 10 14 17 15 12 11 11 11 10 11 11 10
13 13 14 15 15 13 13 11 11 5 4 1 0 1 2 4 1 1 2 7 10 10 10 5 14 14 13 2 6 12 12 8 3 3 8 3 4 4 3 4 2 4 6 7 6 1 6 7 9 6 7 8 8 6 6 5 4 3 3 2 4 3 8 5 5 5 3 9 1 13 13 9 11 10 10 8 12 12 12 12 13 13 12 11 12 11 11 8
12 12 13 13 14 13 12 12 9 6 5 2 2 4 4 4 2 2 1 4 6 14 13 14 7 12 15 15 12 8 4 5 12 8 5 9 5 7 1 6 4 6 4 6 4 3 9 10 5 8 7 7 6 6 6 7 7 3 3 5 4 6 2 4 4 1 6 16 4 14 16 11 9 9 8 6 7 10 9 11 11 12 11 10 9 11 10 8
12 12 12 12 12 11 11 10 9 7 2 2 5 7 9 2 5 5 4 4 7 7 11 13 10 15 17 10 7 2 4 6 7 6 5 8 6 11 5 6 6 5 4 9 12 5 6 8 8 7 6 5 4 4 5 5 4 4 4 4 8 2 2 4 6 3 8 8 11 15 15 9 9 9 10 8 7 9 11 11 11 10 10 10 9 8 9 9
14 11 10 10 10 11 10 10 5 3 5 7 7 12 8 4 3 8 5 2 4 4 8 10 11 10 15 9 1 11 9 4 5 10 6 11 10 8 3 7 6 6 10 9 8 8 3 1 9 7 6 7 6 7 6 5 6 4 7 8 5 3 3 4 3 9 14 12 17 16 12 4 3 6 6 7 8 11 10 12 11 10 10 8 8 8 8 9
13 11 9 10 8 7 11 4 2 5 2 2 11 15 12 12 6 5 5 3 2 5 8 9 5 6 8 4 4 2 5 5 11 6 4 12 11 9 8 3 4 9 8 8 5 5 7 5 6 6 5 5 6 8 11 6 7 4 6 12 8 4 4 3 2 12 4 4 8 21 5 2 2 5 7 7 6 9 8 11 10 10 9 9 10 8 8 8
10 8 6 7 9 11 7 4 3 2 6 7 6 3 6 9 6 4 2 1 5 3 5 6 8 8 7 5 8 6 1 5 7 10 7 11 9 7 4 7 5 10 9 9 7 2 5 4 9 10 8 8 9 9 9 7 7 4 7 7 7 5 4 5 3 10 8 10 13 4 13 3 2 6 6 6 9 8 8 10 10 9 8 8 8 7 8 9
6 6 3 6 9 11 5 4 0 3 2 7 7 11 9 6 5 5 1 2 3 5 9 4 7 2 5 9 10 9 3 7 4 5 11 12 12 6 9 5 5 2 5 3 1 8 6 8 8 9 10 10 9 10 10 8 7 7 4 3 5 5 7 8 7 14 10 3 12 2 2 10 5 8 8 7 8 9 9 9 9 9 9 9 9 8 8 8
6 4 4 8 6 10 2 1 4 2 4 5 9 8 7 7 4 4 0 2 3 5 5 5 6 3 4 8 12 8 7 3 5 5 13 14 7 8 5 6 8 7 8 7 13 0 10 7 11 12 10 10 11 10 7 9 7 6 4 6 4 5 7 10 8 7 4 11 8 2 6 7 3 6 9 8 10 7 8 10 9 11 10 11 11 10 9 8
4 5 7 8 6 9 7 3 4 6 5 6 10 10 8 9 4 4 2 2 1 2 4 4 3 3 1 11 9 12 4 1 2 4 4 14 8 3 9 6 5 6 6 8 7 3 6 9 11 13 10 11 9 10 10 9 7 10 4 2 3 2 4 6 5 8 4 6 11 8 9 7 3 8 11 10 9 13 9 9 9 12 13 12 12 11 9 8
1 3 6 5 3 4 3 1 4 5 8 9 10 12 11 2 4 1 2 3 3 2 4 1 6 5 4 10 6 9 4 3 4 3 4 8 11 2 3 3 3 9 6 4 6 8 5 8 9 8 10 9 10 10 9 9 12 1 3 5 2 2 3 2 2 4 7 8 11 15 13 9 6 11 14 14 13 17 12 7 5 7 8 11 12 11 9 8
2 3 2 4 1 1 2 3 2 0 6 6 9 11 4 1 2 3 1 4 2 1 2 2 4 5 9 14 9 7 7 4 2 5 4 5 7 3 4 5 2 1 4 4 7 8 6 5 7 4 8 8 9 9 7 8 8 7 4 3 3 4 3 3 2 2 6 7 5 6 6 6 8 8 11 7 4 15 19 17 15 13 11 10 10 9 10 9
10 5 5 2 3 3 2 3 4 9 7 8 10 5 1 4 6 4 5 6 1 2 2 5 3 5 8 7 6 9 8 2 2 5 8 8 6 7 9 8 7 6 7 8 9 3 9 9 2 6 9 14 8 7 8 6 5 7 4 3 7 1 1 3 2 2 4 7 2 6 5 1 1 1 4 8 5 11 5 10 14 14 11 9 9 9 8 8
7 8 8 5 5 3 4 6 6 8 10 10 6 1 2 3 5 4 4 6 2 3 1 4 5 8 10 10 8 6 3 4 4 2 8 5 7 10 4 4 5 6 5 1 4 6 7 3 5 6 5 10 10 10 5 7 7 6 8 5 6 3 4 4 1 1 1 4 2 10 5 3 1 1 2 10 8 10 10 9 10 11 11 10 10 9 7 7
8 7 3 3 4 4 4 5 5 9 10 9 2 2 1 2 2 2 2 2 5 4 4 4 8 8 12 11 9 7 5 4 4 3 9 6 8 9 9 9 6 8 1 6 8 9 6 9 11 8 5 7 12 11 10 6 6 9 4 9 8 7 4 2 2 4 6 5 3 8 7 4 3 2 2 6 11 11 11 10 8 8 9 10 11 10 8 6
9 6 4 3 2 5 6 6 6 6 5 6 4 3 4 3 1 0 2 3 3 6 7 5 8 10 10 6 5 7 4 3 6 3 8 9 10 8 11 11 7 3 4 6 4 2 14 5 6 8 5 8 10 7 8 6 4 4 4 7 5 7 6 2 5 6 3 4 4 6 1 3 2 2 6 7 12 12 11 10 9 10 10 11 10 9 7 5
5 4 0 1 1 2 2 2 4 5 4 5 4 1 2 3 1 4 2 5 5 6 10 6 6 8 7 7 4 6 9 1 4 2 2 9 8 9 7 5 9 10 5 7 3 4 3 6 2 4 8 6 11 7 6 8 7 4 5 7 7 6 6 3 1 1 4 8 0 2 5 5 4 6 7 9 12 12 11 10 10 11 10 10 8 7 6 5
4 4 3 1 3 3 5 5 4 4 1 1 3 2 3 4 7 8 4 7 9 9 4 2 6 5 5 6 4 9 7 2 2 5 2 4 4 10 10 8 6 10 7 6 2 3 7 3 5 4 11 8 7 12 6 8 6 4 7 6 2 3 5 6 4 1 1 6 2 2 6 7 7 4 5 11 11 11 11 11 11 10 10 10 6 6 6 5
3 3 4 5 7 4 4 2 3 2 1 1 1 3 2 6 4 7 9 11 7 2 2 0 3 2 7 6 7 10 7 9 3 4 2 8 2 8 8 6 7 8 10 6 1 2 3 1 5 5 8 8 1 5 4 2 2 9 8 6 6 3 6 3 5 2 1 1 2 2 8 7 7 7 11 14 15 14 13 12 11 10 9 9 6 6 5 6
2 1 5 6 1 4 5 8 3 0 1 4 1 1 3 7 7 9 11 10 5 4 2 2 1 1 2 7 3 7 9 10 4 2 3 4 4 9 11 8 7 10 7 8 6 3 1 3 2 3 6 2 3 6 7 6 2 1 4 1 1 5 3 3 5 5 7 4 4 2 7 4 5 8 18 17 15 15 14 12 11 10 9 8 7 6 6 6
3 2 1 3 2 6 10 7 1 3 2 2 1 3 3 9 11 12 11 11 4 2 1 3 2 1 2 1 3 6 5 7 5 3 3 2 5 2 10 9 5 9 13 8 5 2 4 2 2 3 2 5 5 5 9 8 7 2 2 1 1 0 2 5 1 5 5 7 4 6 6 5 3 10 14 16 15 15 15 13 11 10 9 8 6 6 6 5
0 2 3 4 4 8 7 4 2 2 1 2 4 6 8 7 7 11 13 15 7 3 4 2 1 1 1 3 5 0 4 6 6 3 3 4 9 2 9 10 7 7 9 8 8 2 1 1 6 2 2 7 4 4 8 9 8 6 7 6 6 3 3 5 6 2 4 7 5 5 5 3 3 1 13 12 12 12 10 13 11 11 9 8 7 6 5 6
1 1 2 4 6 5 5 4 1 1 0 2 2 3 6 7 11 13 12 12 3 1 2 1 3 3 1 1 3 2 1 6 6 5 2 6 8 4 4 11 11 8 6 7 11 4 5 2 3 3 5 7 4 4 6 9 6 7 9 5 7 4 5 3 4 4 4 2 5 4 4 3 2 1 6 11 11 10 11 12 12 10 10 9 8 7 8 8
2 1 3 3 5 0 3 1 0 1 3 4 5 10 10 10 8 9 11 11 6 1 1 1 1 2 2 1 1 1 1 2 8 7 4 7 9 15 6 14 12 13 9 4 4 4 2 1 3 3 3 3 3 4 5 6 6 3 2 3 5 3 5 6 4 5 6 4 4 0 2 1 2 2 12 13 11 11 10 11 13 10 9 9 10 10 10 10
1 1 3 3 4 3 1 1 1 3 4 6 8 10 8 10 10 11 5 8 1 3 2 2 3 2 3 2 1 2 2 2 5 10 5 5 6 15 12 12 15 10 11 6 8 5 5 2 6 3 1 1 1 2 2 1 4 3 3 2 3 4 3 3 2 0 4 6 8 8 6 3 1 6 13 15 13 13 12 11 14 13 9 10 10 9 9 10
1 0 1 2 1 1 1 1 3 2 3 5 6 7 8 3 4 8 10 8 1 1 2 3 2 4 3 2 3 5 4 6 1 8 6 7 6 6 16 12 16 11 11 7 8 6 5 3 5 4 8 8 9 9 8 7 8 2 3 4 3 7 2 2 4 1 4 1 5 5 3 1 3 10 15 16 15 13 12 13 10 13 13 13 11 10 10 9
2 3 2 1 1 2 4 3 3 3 5 5 3 6 5 4 6 8 8 8 3 3 1 4 6 5 3 4 2 1 1 2 5 2 7 4 3 5 10 15 14 12 12 13 10 7 3 2 2 6 8 8 3 3 4 4 3 6 2 5 3 3 5 5 4 4 8 4 4 1 11 14 11 14 16 17 17 17 14 12 13 11 12 12 12 10 10 9
1 2 2 1 1 4 6 3 4 2 3 2 1 3 6 8 8 7 4 2 6 3 2 5 4 2 2 3 2 2 3 3 2 0 3 9 5 5 11 14 13 16 13 11 11 6 3 5 2 6 6 8 6 3 3 6 2 2 1 2 5 4 5 5 4 7 6 11 2 2 16 19 15 15 16 18 16 16 15 14 13 13 14 12 11 11 11 9
2 1 1 4 3 2 2 6 7 7 7 5 4 3 7 9 8 4 5 2 2 2 0 5 1 1 1 0 2 1 5 2 2 2 6 1 5 8 4 10 10 14 13 5 9 6 6 4 2 3 3 6 3 6 9 10 5 3 6 5 2 5 7 5 5 4 10 8 9 14 15 18 17 17 18 17 17 17 16 16 14 14 14 12 12 12 11 9
1 1 2 2 0 2 5 5 2 7 8 7 3 3 7 6 8 4 2 2 1 2 2 0 3 4 5 4 2 1 3 4 4 1 1 4 3 2 2 4 3 8 7 4 5 3 6 1 2 5 5 7 4 8 9 13 3 9 10 9 4 1 3 6 4 3 1 1 12 21 13 10 12 11 11 12 12 15 14 12 13 14 15 15 13 12 11 10
1 1 2 4 2 5 4 3 2 1 3 4 3 4 2 1 5 5 2 2 2 3 4 3 3 5 4 5 1 0 1 1 1 2 3 3 4 2 2 1 2 1 7 5 5 1 6 3 3 4 4 4 6 5 11 11 10 8 7 9 10 5 10 7 8 9 17 13 15 17 16 12 4 11 11 11 11 12 13 14 15 15 15 15 14 12 11 10
1 1 1 3 3 4 3 2 2 1 1 3 1 4 2 2 3 5 6 5 5 3 1 5 5 6 3 3 4 3 3 1 2 2 5 1 4 4 2 2 1 3 0 5 4 1 5 2 3 3 6 2 3 5 9 13 13 10 6 10 11 8 7 1 6 2 8 12 15 15 13 7 8 13 12 12 13 15 16 15 14 12 13 14 14 13 12 10
2 2 2 2 1 3 2 4 2 1 1 2 2 2 1 4 5 6 5 5 4 7 5 5 5 3 5 3 5 4 4 2 3 4 2 1 0 4 6 4 6 4 0 0 1 5 5 5 3 5 8 0 2 1 3 6 7 4 3 4 4 3 0 4 3 3 11 24 15 12 13 12 18 17 17 15 15 15 15 15 14 13 13 14 14 14 12 10
Wind_Direction
302 305 307 307 307 308 311 314 313 315 314 312 313 314 311 312 313 310 310 313 310 311 313 317 319 320 322 326 327 329 330 330 311 298 240 237 201 232 237 225 214 216 184 189 269 283 274 201 255 293 8 67 256 343 231 183 191 123 199 188 244 213 257 217 240 231 277 315 290 321 159 113 99 93 106 75 73 89 83 82 72 76 85 102 114 117 127 138
299 298 301 302 303 307 309 308 310 312 310 310 312 313 312 313 312 308 308 309 312 309 313 315 316 321 322 324 330 329 334 304 291 278 238 197 212 226 235 243 258 255 147 186 203 190 162 221 241 161 106 282 253 225 168 274 155 159 214 153 231 188 233 190 259 286 329 291 311 294 307 105 140 118 135 98 99 95 88 86 99 94 101 108 113 121 126 133
289 294 294 297 296 300 304 305 305 308 308 308 307 309 308 308 308 306 303 306 310 314 313 312 315 319 323 327 327 335 328 313 270 255 266 206 237 223 227 232 245 166 167 164 198 186 188 183 303 104 192 213 269 236 336 256 84 224 177 235 237 226 270 274 267 273 268 275 297 308 279 132 182 112 148 116 126 111 115 114 107 116 121 126 125 125 129 132
286 286 289 291 293 295 298 300 302 302 307 310 307 304 307 306 305 307 303 300 307 311 313 315 317 322 322 324 329 330 345 274 267 246 242 209 209 209 219 218 212 176 181 156 148 164 335 345 2 173 262 189 277 208 260 258 166 267 142 212 235 211 351 271 289 284 277 263 254 320 309 49 68 135 123 131 97 106 131 139 136 135 131 129 127 126 126 115
283 281 281 282 288 289 292 294 295 302 305 306 306 306 307 306 305 303 305 300 302 308 313 315 317 320 323 325 323 336 297 2 269 216 249 252 205 203 203 199 184 178 170 145 138 322 313 282 42 313 200 253 245 313 247 260 215 314 202 198 204 288 285 272 294 286 285 250 244 342 25 325 282 120 137 139 131 159 148 141 125 129 131 127 120 121 120 119
284 279 276 278 277 282 285 289 293 296 299 303 306 306 305 305 305 304 305 304 302 308 313 317 317 321 325 326 312 263 189 159 299 292 329 290 193 193 194 182 173 152 154 162 139 71 0 345 139 193 235 188 236 188 264 220 169 250 283 265 227 221 233 284 291 282 294 327 32 346 321 322 64 102 87 120 126 117 123 127 123 124 124 112 113 117 117 126
291 282 275 270 272 272 279 281 288 291 295 299 301 301 303 305 307 303 306 306 306 315 315 319 323 324 328 326 288 167 205 281 329 265 4 326 185 164 171 165 147 136 144 151 159 171 179 193 127 214 192 256 266 217 245 273 184 200 251 255 249 221 234 257 275 257 297 14 343 265 339 21 81 56 91 87 99 114 122 121 121 115 101 103 110 117 124 126
290 285 278 276 272 272 272 278 281 286 293 296 297 299 303 303 304 306 308 311 311 314 315 319 323 326 331 342 329 223 226 255 249 280 13 65 124 137 138 131 149 136 153 189 162 191 150 191 208 169 204 199 224 183 249 247 234 215 248 241 246 223 220 231 254 285 314 322 286 10 32 355 83 118 98 108 118 122 126 124 112 98 94 98 110 116 116 113
279 283 284 274 267 265 269 273 276 281 288 294 293 297 300 300 303 306 306 307 309 313 315 321 323 322 336 268 281 346 237 237 165 170 121 118 115 121 130 145 163 160 177 165 193 178 140 240 217 186 227 209 248 265 271 238 303 202 220 227 239 241 241 210 256 251 248 283 53 350 49 72 80 89 99 127 125 126 128 116 104 102 99 103 113 117 118 121
291 280 282 287 271 263 262 265 272 277 285 289 292 294 297 298 298 299 302 304 307 309 315 321 322 339 339 315 255 209 259 221 213 146 134 136 117 133 162 154 160 165 162 207 168 168 192 212 187 183 221 287 248 256 287 157 233 229 235 224 232 241 222 202 209 241 247 246 334 240 86 113 150 104 120 130 132 133 119 109 105 104 108 111 110 114 119 125
295 283 270 270 278 266 261 260 265 274 280 284 288 291 293 295 297 297 299 303 305 306 311 321 327 346 336 337 194 207 251 89 17 32 98 130 137 148 178 164 173 168 188 193 204 199 217 227 229 358 276 229 318 295 299 230 265 273 261 272 267 265 184 185 249 276 202 301 291 203 150 154 251 125 146 153 148 131 115 115 110 111 113 111 113 114 117 113
295 287 279 271 276 276 262 257 259 267 277 281 285 290 291 294 296 297 296 301 302 302 304 318 329 322 286 242 231 228 62 90 344 356 352 177 208 187 178 166 171 182 170 195 219 215 212 226 194 109 210 23 238 277 283 262 260 257 222 239 260 272 265 192 204 243 144 282 192 180 322 7 18 146 146 152 143 128 123 121 116 113 113 113 113 113 113 115
294 287 278 267 261 270 266 257 255 264 272 278 284 288 289 289 291 292 292 292 298 301 313 311 324 316 320 311 234 240 300 321 336 329 323 232 254 261 205 166 181 178 183 191 212 215 213 221 173 235 252 294 274 225 276 319 295 281 204 187 270 344 319 260 196 168 185 247 119 97 242 279 305 136 126 139 128 119 113 117 118 115 113 112 112 112 111 110
291 286 283 274 265 263 269 256 256 260 265 274 283 285 285 287 289 292 292 288 291 295 295 307 338 277 276 246 269 322 309 299 310 310 285 232 299 268 213 201 184 187 187 193 218 201 212 214 197 241 285 256 271 320 318 317 328 283 265 151 192 143 260 275 174 180 170 241 123 107 174 281 65 52 43 8 108 121 116 116 115 113 113 111 109 109 108 106
290 290 288 274 264 257 258 258 253 254 262 274 280 282 286 290 288 288 289 291 287 295 302 314 194 206 244 266 275 270 256 270 284 259 250 238 252 307 224 193 193 194 193 197 194 207 212 166 176 247 264 225 238 267 285 318 336 293 347 282 310 152 277 288 280 156 182 300 130 102 160 227 112 121 143 151 138 115 111 112 111 110 110 111 109 106 105 106
289 289 287 280 265 257 264 262 250 255 265 277 280 282 286 287 287 285 288 284 284 285 297 276 199 182 292 280 254 326 308 136 256 239 244 177 195 218 247 192 192 200 183 229 227 209 194 171 216 202 263 295 277 252 307 2 330 331 151 245 238 160 236 352 290 204 188 147 133 151 207 257 99 149 157 146 134 119 113 114 110 110 108 106 106 106 107 106
289 288 282 278 268 255 249 252 249 252 259 275 284 286 288 286 285 285 286 289 283 255 221 244 140 173 201 235 326 302 246 239 243 240 187 186 188 209 290 240 188 189 196 212 208 227 209 180 198 232 209 219 179 200 243 289 293 298 41 176 203 171 207 250 299 298 197 158 103 162 102 53 128 153 142 142 131 122 116 117 113 110 107 105 105 104 106 99
286 289 285 280 268 255 244 248 246 249 273 281 279 289 292 286 276 283 290 271 236 220 235 248 267 235 280 272 294 222 173 237 189 224 225 172 182 199 183 250 194 185 168 208 182 185 167 207 150 220 270 187 174 149 162 220 196 218 251 145 269 303 165 199 168 254 123 183 126 66 71 92 111 94 118 124 124 116 115 119 116 116 112 107 102 96 86 80
288 287 285 280 273 254 237 249 241 244 263 276 301 312 289 278 273 207 255 256 137 73 355 210 157 165 214 212 233 301 287 290 294 144 243 189 171 167 162 204 301 158 176 171 263 177 165 203 139 213 229 182 197 180 185 210 174 205 183 183 165 172 238 213 238 271 153 152 91 80 117 119 102 79 76 93 110 112 116 116 114 110 104 102 98 92 85 78
282 281 287 284 275 257 246 238 241 241 260 303 13 321 347 33 16 322 215 229 240 215 215 174 211 299 316 278 127 180 246 264 307 240 217 199 146 142 210 148 239 177 166 186 209 202 130 183 204 209 211 198 202 184 192 218 190 228 243 212 199 197 261 255 240 243 153 74 78 110 99 105 90 96 97 107 110 108 116 114 108 105 106 104 102 97 96 82
279 280 281 282 275 264 240 240 232 196 243 213 19 17 242 187 143 243 197 226 231 252 261 243 204 224 239 18 336 19 10 326 254 259 218 163 185 108 227 135 189 216 203 175 177 240 153 197 226 213 202 192 206 189 196 242 242 229 277 281 285 217 219 224 216 231 185 106 216 99 87 74 99 105 107 110 106 99 108 105 103 103 102 103 103 103 93 99
282 279 278 272 263 262 238 228 220 190 201 156 177 235 278 244 68 186 293 306 236 230 242 244 238 257 263 275 287 319 315 285 301 282 242 165 189 161 257 163 167 202 201 174 182 189 197 212 214 206 208 187 206 202 201 208 239 241 210 259 274 261 237 305 265 198 95 102 185 108 94 94 88 93 82 72 78 96 90 95 103 104 102 103 102 100 102 99
280 279 274 269 266 255 237 223 224 206 154 174 234 236 249 247 339 345 339 265 278 230 217 232 241 247 260 261 262 250 258 236 255 271 211 177 164 200 145 168 180 197 198 182 190 147 191 235 211 205 181 175 219 227 219 235 236 216 242 226 232 169 119 293 282 130 137 131 157 113 104 99 88 71 70 51 67 79 71 75 79 79 91 97 97 100 108 102
284 275 270 265 258 247 222 221 218 159 206 218 233 230 246 279 327 353 356 259 287 256 190 217 212 237 248 229 222 174 209 235 198 253 213 179 183 176 196 171 177 192 205 189 185 177 193 169 187 191 188 174 204 228 225 210 248 226 207 222 224 164 202 161 276 72 72 75 116 89 82 57 68 105 89 91 86 86 87 81 75 73 76 80 84 83 89 93
272 274 274 270 248 231 212 197 157 224 139 212 248 247 251 262 280 322 328 292 266 267 192 229 194 247 240 142 227 305 188 258 235 251 205 181 172 164 207 158 167 209 197 187 170 172 222 234 162 176 194 193 198 229 229 172 229 261 226 217 212 179 192 201 142 105 80 130 172 121 61 324 260 125 125 132 104 100 106 103 103 106 99 93 93 89 85 84
269 265 266 255 199 176 159 172 243 147 173 221 234 261 231 238 233 210 180 309 295 255 106 220 129 258 134 218 143 195 63 281 229 224 223 192 183 179 159 209 178 193 194 183 187 191 191 207 172 190 190 205 210 221 230 155 217 210 256 204 208 203 193 220 187 122 147 162 228 217 138 201 189 179 157 144 121 119 116 112 120 117 110 105 106 108 104 103
262 263 264 223 167 159 142 229 292 135 181 253 235 255 262 263 165 164 91 325 328 203 166 142 166 251 154 171 157 135 97 265 226 213 212 183 181 184 179 207 167 195 177 148 145 220 168 198 189 195 197 204 210 223 226 170 173 237 229 174 173 179 212 230 212 172 182 167 182 229 141 138 191 196 171 159 131 139 129 129 128 125 122 122 118 115 107 104
277 236 190 214 181 185 212 20 3 295 259 320 339 329 300 291 161 173 134 109 277 140 158 186 223 157 219 148 153 170 201 223 150 229 190 166 172 176 191 201 183 174 174 178 201 45 169 193 193 196 201 207 214 217 221 169 192 230 208 164 163 172 206 226 201 156 214 140 205 112 123 77 169 158 165 160 142 161 158 149 148 137 132 128 123 120 115 113
274 219 193 197 211 227 262 299 336 284 250 298 311 302 308 306 180 171 176 183 184 127 80 125 109 126 153 132 152 203 256 265 188 173 128 161 193 123 198 201 176 187 202 193 175 213 195 201 196 195 189 212 215 218 212 177 199 249 217 180 144 158 221 223 200 142 163 174 187 183 181 114 158 169 169 173 168 174 173 173 164 149 143 136 129 126 118 112
307 161 181 196 189 258 287 258 244 272 293 299 296 301 302 305 170 201 74 284 205 245 196 177 182 195 148 136 168 213 230 285 270 117 138 169 185 123 200 134 165 189 214 190 182 208 197 206 193 188 200 203 207 222 206 198 217 207 188 228 222 29 292 335 85 122 113 212 202 183 197 132 167 194 181 177 202 176 164 163 158 142 134 134 132 132 127 117
57 65 352 303 115 242 252 253 243 103 278 288 303 302 283 76 117 144 141 231 295 101 124 133 164 127 149 158 174 201 211 245 277 159 119 169 183 179 138 193 219 275 206 202 217 225 246 215 203 203 182 206 195 218 222 204 216 212 234 193 151 318 319 295 358 97 143 228 256 206 199 170 178 206 208 219 102 168 165 162 159 151 144 139 132 131 123 119
22 347 281 272 265 316 282 275 350 324 311 320 315 328 40 103 355 185 204 340 121 233 144 167 149 147 159 170 180 172 183 200 266 171 163 178 173 184 201 189 160 162 211 191 217 225 241 230 215 211 190 189 192 204 232 219 217 207 215 103 149 239 151 273 113 203 194 187 218 176 173 36 317 203 237 197 141 152 167 156 149 143 142 136 130 122 116 115
345 326 325 311 303 329 279 290 315 313 317 316 312 229 119 132 182 240 291 338 14 11 298 171 149 160 167 164 206 184 173 194 205 239 160 176 153 205 207 170 181 141 177 198 162 189 256 292 222 220 199 193 180 188 199 215 225 191 203 146 129 155 181 227 255 195 341 270 293 170 210 219 307 339 349 141 148 139 130 130 132 137 139 135 127 116 113 110
342 337 322 284 294 258 280 299 315 300 306 316 216 50 74 83 255 92 318 243 246 304 286 186 142 155 164 181 195 165 177 243 142 224 175 171 170 186 219 221 158 175 124 164 184 183 195 231 238 188 228 178 187 192 176 179 173 211 135 152 172 148 161 199 187 164 185 195 51 353 157 258 120 276 23 123 123 121 122 125 123 117 116 113 111 109 107 110
325 303 278 299 265 257 244 259 273 277 304 317 65 79 152 203 299 134 223 320 302 320 337 321 161 156 174 198 204 199 161 202 214 178 187 165 192 191 196 208 197 142 143 140 224 125 211 221 250 191 210 182 184 187 172 139 163 218 165 93 124 203 137 149 203 148 204 111 56 6 100 337 66 52 85 100 110 109 115 108 101 105 109 107 103 106 111 111
335 299 237 271 262 234 183 225 234 267 277 2 82 107 216 237 220 4 329 285 306 337 327 338 146 153 165 191 203 207 220 92 211 165 251 190 173 191 204 204 194 195 165 181 195 186 139 222 272 195 205 214 179 158 195 153 190 240 125 201 208 154 114 103 82 139 99 72 10 189 109 84 103 46 104 111 109 113 103 98 100 106 107 102 106 113 119 127
351 325 356 247 224 218 190 207 171 260 287 40 77 185 237 285 265 301 312 320 303 305 327 74 170 146 168 185 177 195 209 157 282 159 257 169 184 197 197 218 179 189 204 138 253 182 151 236 277 162 204 243 205 164 171 181 143 126 196 244 190 128 116 137 195 264 23 151 193 176 163 160 158 167 167 129 125 128 120 121 118 116 115 111 119 123 131 125
320 304 275 264 248 236 199 141 85 276 214 26 103 250 279 270 302 294 286 295 295 340 311 150 285 49 171 149 193 181 186 180 221 151 244 195 271 186 188 206 199 201 197 197 131 257 122 191 236 217 183 208 151 137 166 230 137 159 192 205 160 232 220 312 102 192 119 63 172 285 170 190 187 147 159 157 153 153 144 137 129 128 124 123 127 125 122 117
290 323 341 285 207 195 112 94 279 345 77 73 329 270 259 255 274 273 285 286 312 304 1 322 66 311 163 173 179 185 164 193 156 203 155 214 203 196 196 187 208 202 199 184 215 258 81 160 283 271 184 193 158 140 209 185 341 101 128 75 142 105 145 131 194 169 118 177 140 217 178 239 199 173 169 169 162 151 148 144 136 133 130 130 130 130 125 126
1 13 313 302 356 110 122 121 197 44 65 118 242 259 280 293 284 287 297 308 316 63 251 293 358 7 10 282 188 177 183 183 149 242 178 201 206 227 195 185 199 197 206 193 223 162 268 130 199 274 238 135 215 201 201 168 174 168 130 264 131 20 220 115 90 135 156 157 184 141 205 244 233 162 176 169 162 159 152 141 136 134 132 130 127 124 130 120
352 117 279 335 20 113 89 79 65 79 113 269 270 275 288 273 292 291 299 296 262 181 192 238 291 20 5 8 355 180 162 183 178 201 185 186 185 151 228 190 189 208 196 210 231 201 187 187 194 293 121 199 225 229 162 184 169 161 163 195 167 109 121 167 252 4 105 115 165 151 222 265 266 212 173 155 152 145 141 133 131 133 129 125 128 132 124 104
327 41 37 351 331 116 104 95 310 191 251 245 225 249 276 285 288 298 310 309 141 280 223 264 244 243 191 228 221 283 202 185 183 189 213 167 211 187 223 213 188 202 173 195 208 194 160 161 117 218 201 201 206 195 185 175 149 163 159 221 159 148 115 115 176 265 46 81 108 146 124 238 90 272 138 136 140 138 136 131 129 130 127 129 126 114 104 104
18 239 268 316 327 42 69 53 189 210 235 237 260 270 271 274 277 301 313 307 321 318 288 234 342 17 277 226 346 320 248 249 183 197 190 185 207 208 203 198 198 198 193 210 182 231 106 106 169 261 301 298 296 224 178 161 130 103 198 118 116 160 176 171 165 186 127 159 109 31 125 232 336 92 125 125 126 127 131 132 130 129 130 126 118 111 106 99
247 303 350 332 356 357 22 136 190 233 253 262 268 277 286 277 285 291 285 295 321 339 2 328 312 183 271 264 199 244 269 28 222 184 205 203 219 217 215 204 190 204 185 199 181 196 187 266 136 145 97 2 23 348 267 287 162 150 171 229 156 143 127 178 94 126 117 210 173 138 204 197 321 139 126 130 131 135 139 142 137 133 130 122 113 109 107 105
162 175 198 297 330 314 174 246 19 315 294 304 309 299 298 283 240 261 264 270 345 307 348 301 234 321 291 320 278 257 257 181 281 216 179 195 238 202 209 213 198 203 198 173 170 158 174 197 119 156 170 169 183 193 208 209 200 213 140 138 161 170 154 100 217 261 160 263 130 118 106 24 87 132 132 135 138 136 146 146 142 138 134 123 121 118 112 109
299 94 325 44 166 227 276 262 266 270 303 310 318 272 261 291 311 317 326 327 332 185 180 261 297 261 268 305 294 263 293 234 177 221 199 234 237 221 201 205 198 205 191 167 165 129 171 163 130 154 156 180 199 205 231 137 140 182 191 141 183 113 116 114 111 134 188 192 121 248 147 135 141 148 148 152 148 147 147 146 141 131 122 121 123 123 120 117
281 99 157 125 177 241 258 294 275 246 250 274 287 306 315 317 309 314 3 339 13 19 306 230 245 335 293 21 337 308 283 307 330 17 247 215 225 231 201 194 198 201 174 169 170 110 77 190 232 131 148 172 177 155 93 99 88 356 52 210 177 154 146 143 163 228 173 114 271 49 146 137 167 161 157 154 150 146 147 146 143 134 133 135 129 123 116 111
73 292 331 198 130 227 201 272 219 238 247 267 261 296 291 306 330 327 316 92 331 165 347 314 229 194 97 85 281 340 317 337 36 2 330 315 215 230 214 200 190 192 173 172 173 137 144 156 226 103 53 109 156 125 100 73 68 96 59 29 314 205 137 159 205 197 154 160 186 160 166 152 168 171 163 157 153 149 148 146 141 138 130 126 125 124 124 124
201 233 233 295 221 250 183 231 213 208 237 221 254 260 279 286 298 281 255 305 348 342 331 345 309 32 331 298 62 258 341 38 336 317 2 332 306 204 139 165 237 191 166 145 180 166 115 173 161 114 100 41 27 99 93 101 107 56 31 9 352 50 212 149 85 58 56 248 147 151 153 142 150 151 153 146 141 137 137 135 133 133 138 134 132 131 132 132
60 44 301 345 264 279 262 245 254 204 255 244 256 247 230 252 269 302 294 311 322 276 260 259 299 350 318 322 13 94 306 172 180 342 304 341 337 15 75 113 270 267 150 167 172 271 123 248 167 118 77 43 11 53 84 99 101 77 30 24 15 33 73 88 112 101 89 77 119 126 128 130 133 134 134 137 136 134 134 142 144 143 140 138 136 137 136 133
252 187 198 295 313 270 280 289 276 201 270 315 211 276 283 266 285 332 299 262 229 243 214 279 291 318 309 315 331 264 253 183 219 245 282 274 68 286 134 299 218 53 337 153 145 303 101 205 55 75 79 353 341 60 97 94 85 81 42 14 4 351 95 120 113 213 127 139 127 121 122 140 151 142 135 142 147 148 148 146 145 144 141 138 138 138 137 132
276 234 203 227 253 291 359 293 275 85 312 233 205 263 298 285 306 334 329 295 246 230 235 248 272 271 303 350 294 258 276 285 263 280 242 140 180 19 58 74 49 99 28 118 90 126 136 120 85 100 85 265 267 287 119 79 61 31 345 340 328 340 302 97 44 63 153 137 129 148 190 162 152 151 145 152 151 152 151 153 144 140 141 140 140 139 137 127